Wind_Speed
1 1 2 3 4 3 2 2 3 4 5 5 7 9 12 14 15 15 15 16 18 20 22 24 27 28 30 32 34 35 36 37 37 37 37 37 36 36 35 35 35 35 34 33 31 30 29 29 29
4 2 1 1 0 3 3 2 1 1 1 2 4 6 7 9 10 10 11 12 14 16 18 19 21 23 25 27 28 30 32 33 35 36 37 37 38 38 39 38 38 38 37 37 35 34 33 32 32
6 6 5 6 7 7 7 6 4 4 3 2 2 3 4 6 8 10 11 13 15 17 18 20 21 23 25 27 28 30 31 32 34 35 37 38 38 39 40 40 41 41 41 40 39 38 37 36 36
10 10 10 12 11 10 9 8 7 6 4 3 3 4 6 8 10 12 14 15 17 18 20 22 23 25 27 29 31 32 34 35 37 38 39 40 41 42 43 43 43 43 44 43 42 41 40 39 39
10 10 10 10 9 8 7 6 6 5 4 4 4 5 7 9 11 13 15 17 18 20 22 24 26 28 29 31 33 35 36 38 39 40 42 43 44 45 46 47 47 46 46 46 46 45 44 43 42
8 9 8 8 7 6 6 6 5 4 4 4 6 8 9 11 13 15 17 19 21 23 25 28 30 32 34 36 38 40 41 42 43 44 45 46 47 47 48 49 50 51 51 49 49 48 48 47 45
10 9 9 9 8 8 8 7 7 7 7 8 8 10 11 12 15 17 20 23 25 28 31 34 36 39 42 44 45 47 48 49 50 50 51 51 51 52 52 52 52 52 53 53 54 53 52 51 49
11 10 11 10 10 10 9 9 9 8 9 10 11 12 14 17 20 23 26 29 32 35 39 42 45 47 50 52 54 56 57 58 58 59 58 58 58 57 57 56 56 56 56 55 55 56 57 55 54
12 12 12 12 12 12 11 11 11 11 12 13 15 17 20 23 26 29 32 35 39 43 46 49 52 55 58 60 62 64 65 66 67 67 67 66 65 65 63 62 61 60 59 59 58 57 58 59 58
13 13 12 12 12 11 11 12 12 13 14 16 18 21 24 27 31 35 38 42 45 49 53 57 60 62 65 67 70 71 72 73 74 74 73 72 71 70 69 68 67 66 64 62 62 61 60 60 60
12 11 10 9 9 9 9 10 12 14 15 19 22 25 28 32 36 40 44 48 51 54 58 62 65 68 71 73 76 77 78 79 79 79 79 77 75 74 73 72 71 70 70 68 66 65 64 63 62
9 8 6 6 6 7 9 12 14 16 19 23 26 30 33 37 41 45 48 51 55 58 62 66 70 73 76 78 80 81 83 84 84 84 84 84 82 79 77 75 74 73 72 72 71 69 68 67 65
5 3 4 5 8 10 13 16 18 20 23 27 31 34 38 41 44 47 51 55 59 63 67 71 74 77 79 80 82 83 85 86 87 87 88 88 88 86 82 79 77 75 74 74 74 74 72 71 69
3 4 6 9 11 14 16 19 21 24 27 31 34 37 40 43 47 51 56 60 65 69 73 77 79 81 82 84 85 87 89 90 90 91 90 89 88 87 85 82 79 77 76 76 76 76 76 75 73
6 8 10 11 14 15 16 19 24 27 30 33 36 39 43 47 51 56 61 66 71 75 78 80 82 84 86 88 89 90 90 89 87 84 81 78 75 75 74 73 72 71 72 73 76 78 79 78 77
9 11 12 14 15 17 19 20 25 28 32 35 39 43 48 52 57 62 67 71 75 78 80 83 85 87 88 89 88 86 82 78 74 69 65 63 61 60 60 59 60 62 64 67 71 76 80 81 81
12 14 14 17 18 20 23 25 28 31 35 39 44 48 52 57 62 66 71 75 78 80 82 85 87 88 87 84 80 75 71 68 65 62 59 57 56 56 55 54 54 55 57 60 64 71 77 82 84
15 17 18 19 21 23 26 28 30 35 39 43 47 51 56 61 66 71 75 78 80 82 84 87 87 86 82 78 73 70 67 66 64 63 62 61 60 59 58 56 54 54 54 56 58 63 71 80 86
16 17 19 21 24 26 28 30 32 38 41 45 49 55 61 66 70 75 78 79 81 83 85 86 86 82 78 75 72 70 68 67 66 65 64 64 63 62 61 60 57 55 55 54 55 56 61 72 83
17 19 20 20 24 28 30 31 34 39 43 47 53 59 65 70 74 78 80 81 83 85 86 85 82 79 77 75 73 69 66 63 60 59 58 58 58 59 60 60 59 58 56 55 55 54 54 60 72
19 21 23 25 26 28 33 34 35 41 46 51 57 63 68 74 78 80 81 82 83 84 83 82 80 78 75 71 66 62 59 56 54 52 51 51 51 51 52 53 55 56 57 56 55 54 53 53 58
19 21 23 26 28 31 33 38 38 45 51 56 61 66 72 78 80 80 81 82 83 83 82 80 77 73 69 65 62 60 57 55 53 52 51 50 50 49 48 47 48 51 54 55 55 55 53 52 52
20 22 25 27 30 32 34 40 45 50 55 60 65 71 76 79 79 80 81 82 82 82 80 77 72 68 64 63 61 59 58 57 56 56 54 52 50 48 47 46 45 45 48 51 54 54 54 52 51
22 24 25 29 34 38 42 45 48 52 58 64 70 74 77 79 79 80 81 82 81 81 78 72 67 65 64 62 61 60 59 59 58 55 52 49 48 46 45 44 43 42 43 46 50 52 53 52 50
24 27 32 36 38 40 42 45 49 56 62 67 72 75 77 79 80 81 81 81 80 78 73 68 65 64 63 62 60 60 60 60 57 53 50 47 45 44 42 41 40 40 40 42 45 49 51 51 49
26 28 32 35 37 38 42 48 53 57 62 67 72 76 79 79 80 80 80 80 79 74 68 66 65 65 63 62 61 61 61 58 54 51 48 46 45 44 42 40 38 37 37 39 42 46 49 49 48
27 29 31 34 37 42 46 49 54 59 63 68 74 77 78 78 79 79 79 79 75 70 66 65 65 64 63 61 61 61 59 56 52 50 48 47 46 45 44 41 37 35 35 36 38 42 46 47 46
27 30 33 36 41 45 48 52 56 60 65 71 75 76 77 78 78 78 78 77 71 67 65 65 65 64 62 62 61 60 57 55 52 51 49 48 47 46 44 42 39 35 33 33 35 39 42 44 43
27 30 32 36 40 46 52 54 57 61 67 72 75 76 77 77 77 77 77 74 68 65 65 65 64 63 62 61 60 58 56 55 54 53 52 50 48 47 45 42 40 36 33 32 33 36 39 41 41
28 32 35 38 41 44 49 55 58 63 69 73 76 76 76 76 76 77 76 70 65 64 64 65 64 63 62 60 58 57 57 57 56 56 55 53 51 49 47 45 41 37 33 31 31 33 36 39 39
Wind_Direction
111 205 202 209 236 250 303 316 261 259 273 283 283 284 290 295 298 297 297 296 292 287 284 281 280 280 280 278 276 275 274 273 272 271 270 269 267 265 264 263 264 263 261 260 257 255 252 249 247
105 112 139 159 328 62 38 31 7 6 327 304 301 297 300 304 314 317 317 316 312 306 300 297 295 293 290 287 285 283 281 279 277 275 273 271 269 267 265 263 261 260 260 259 258 255 253 250 248
95 84 61 70 73 69 73 78 85 90 90 72 40 4 340 325 319 316 316 315 313 311 308 305 302 299 296 293 291 288 285 283 281 279 277 273 270 267 265 264 262 260 258 256 256 255 253 251 249
87 83 73 79 81 83 86 90 92 88 78 53 17 345 330 323 318 319 320 319 317 313 310 306 301 298 295 292 289 287 285 284 282 280 278 276 274 271 268 265 263 262 260 257 255 253 252 251 249
83 84 80 77 78 75 74 73 64 52 34 17 2 345 335 331 330 329 327 324 320 316 312 309 305 302 300 297 294 292 289 287 285 282 280 277 274 272 271 269 266 264 261 260 258 255 253 250 249
78 72 72 67 64 64 65 65 59 50 38 28 11 355 348 341 336 332 328 324 320 317 314 312 310 308 305 303 301 298 296 293 291 288 286 283 280 277 274 271 268 266 263 260 259 258 256 252 249
62 59 60 63 65 66 65 61 53 41 27 22 13 359 350 343 338 334 330 327 323 320 317 314 312 310 307 305 303 301 299 297 294 292 289 286 284 281 279 275 272 268 265 262 259 257 256 255 251
60 58 57 57 57 55 53 51 47 39 28 18 8 357 349 343 338 333 329 325 322 319 316 314 311 309 307 305 302 300 298 296 293 291 288 286 284 281 279 277 275 272 268 264 261 257 255 254 252
57 57 54 53 52 52 50 45 37 27 16 5 356 348 342 336 331 327 324 321 318 316 314 312 310 308 306 304 302 300 298 296 294 291 289 286 284 281 278 276 273 271 269 267 263 259 256 252 250
60 59 59 57 55 50 40 30 18 6 357 348 342 336 332 328 325 322 320 317 315 314 313 311 310 308 306 304 302 300 298 296 294 292 289 286 284 281 278 275 273 270 268 266 264 261 257 254 250
70 70 66 58 47 34 20 7 356 346 338 335 331 327 324 322 320 318 316 315 313 312 311 310 308 306 305 303 301 299 298 296 294 292 290 287 284 280 277 274 271 268 266 264 262 260 257 254 252
77 76 64 42 19 360 347 339 334 332 330 327 323 321 319 317 316 315 314 314 313 312 310 309 307 305 304 302 301 299 297 295 293 291 289 287 284 281 277 272 269 266 264 261 259 257 256 254 251
74 53 18 352 339 333 329 326 325 325 324 322 319 317 317 316 316 316 316 315 314 312 310 309 308 306 304 302 300 298 296 294 292 289 287 285 283 281 278 274 269 264 261 258 256 254 252 251 249
12 341 332 328 325 324 326 323 321 322 320 319 318 318 317 317 318 318 317 316 314 313 312 311 310 308 306 303 301 299 297 295 293 291 289 286 284 282 279 276 272 267 261 256 252 250 248 248 246
330 319 319 321 321 323 325 323 320 320 320 319 319 318 318 319 320 319 317 316 315 315 314 313 311 309 307 306 304 302 300 298 296 294 292 289 286 283 280 277 273 268 263 256 251 248 245 244 243
314 317 320 321 323 325 324 323 321 322 322 322 322 321 321 321 321 320 319 318 317 317 316 314 312 311 310 307 306 304 303 302 300 296 292 288 285 281 278 274 271 267 262 257 250 246 244 241 240
308 310 318 322 324 325 323 326 328 327 326 325 324 323 322 322 321 321 320 320 319 318 317 315 314 313 311 309 309 308 306 304 300 296 291 287 284 281 278 275 273 270 265 260 253 246 242 239 238
315 318 322 322 322 325 326 332 332 328 327 325 324 323 322 323 323 322 322 322 321 320 319 318 316 314 313 313 312 310 307 303 299 295 291 288 285 282 280 277 274 271 268 263 258 250 242 238 236
318 319 323 325 326 329 331 334 331 326 325 324 324 324 324 325 325 325 324 324 323 322 321 319 317 316 316 315 312 309 306 302 299 296 293 290 287 283 280 277 273 270 267 263 260 256 248 241 236
319 322 324 325 326 329 331 332 328 324 325 326 327 327 327 326 327 327 326 325 324 323 322 320 319 319 319 317 315 313 311 309 306 303 299 296 292 288 283 278 273 268 264 262 259 257 254 247 240
324 324 326 328 332 333 329 327 328 327 328 329 329 328 328 328 329 328 328 327 326 325 323 322 323 323 322 320 319 318 317 315 312 309 306 303 299 294 288 281 274 268 263 259 256 255 254 252 247
323 325 328 331 333 332 328 326 332 332 331 330 329 330 330 331 331 330 329 328 327 326 325 326 326 326 325 324 323 323 322 320 317 315 312 309 305 301 295 288 279 270 263 258 254 252 252 252 250
329 332 334 331 329 329 331 335 338 335 331 331 332 334 334 333 332 331 331 330 329 328 328 329 329 329 328 327 327 326 325 323 321 318 315 312 309 305 299 293 285 276 265 258 252 249 249 250 250
333 332 330 331 333 338 339 338 336 334 334 336 336 336 335 334 333 333 332 331 330 330 330 331 331 331 330 329 329 328 327 325 323 321 318 316 313 309 303 296 289 281 270 259 251 247 246 248 249
334 336 337 337 338 338 334 334 338 339 340 339 338 337 335 335 334 334 333 332 331 332 333 334 334 333 332 331 331 330 329 327 326 324 322 321 319 316 311 302 292 284 274 262 252 246 244 245 247
338 338 336 335 333 332 335 340 341 340 340 338 337 337 336 336 335 334 334 333 333 334 336 336 335 335 334 333 332 332 331 330 329 328 327 325 324 322 318 311 299 288 276 265 254 245 242 242 245
336 335 335 333 332 337 340 339 340 340 338 338 338 339 338 337 336 335 335 335 335 337 338 337 337 336 336 335 334 334 334 334 332 330 329 327 325 323 321 318 308 295 281 267 255 246 242 240 242
335 334 334 336 338 337 338 340 341 339 338 339 340 340 338 337 337 337 336 336 338 339 339 339 338 338 338 338 337 337 337 336 335 332 329 327 325 323 321 318 314 303 287 271 256 247 241 239 240
334 334 336 338 339 338 337 339 339 339 340 341 341 340 339 339 338 338 338 338 339 340 340 340 340 340 340 340 340 340 339 338 336 333 330 327 324 322 320 317 314 307 293 276 259 247 239 237 237
335 336 338 338 338 337 335 337 340 340 341 342 342 341 340 339 339 339 339 340 341 341 342 341 342 342 342 343 343 342 341 339 337 334 331 328 324 321 318 316 311 307 297 280 262 247 237 233 233
Height
5856 5856 5857 5858 5859 5860 5860 5861 5862 5864 5865 5866 5867 5867 5866 5866 5867 5869 5866 5864 5864 5863 5862 5861 5860 5859 5859 5858 5857 5856 5854 5854 5853 5852 5851 5850 5850 5849 5849 5849 5849 5849 5850 5850 5850 5850 5851 5852 5852
5856 5857 5858 5859 5858 5859 5860 5861 5862 5864 5866 5866 5866 5866 5866 5865 5865 5864 5863 5862 5861 5860 5859 5858 5857 5856 5855 5853 5852 5850 5849 5847 5846 5845 5844 5843 5843 5842 5842 5842 5842 5842 5842 5843 5844 5844 5845 5846 5846
5857 5858 5860 5859 5858 5860 5861 5861 5862 5863 5865 5865 5865 5865 5865 5864 5863 5862 5861 5860 5859 5858 5857 5856 5854 5852 5850 5848 5846 5844 5842 5841 5839 5837 5836 5835 5835 5834 5834 5834 5834 5834 5834 5835 5835 5836 5837 5838 5839
5859 5861 5861 5859 5859 5861 5862 5862 5863 5864 5864 5864 5865 5864 5863 5862 5861 5860 5859 5858 5857 5856 5854 5852 5850 5848 5845 5843 5841 5838 5836 5834 5831 5829 5828 5827 5826 5825 5825 5825 5825 5825 5825 5826 5826 5827 5828 5829 5831
5861 5862 5862 5861 5862 5863 5863 5864 5865 5865 5865 5864 5864 5863 5861 5861 5860 5859 5857 5856 5854 5852 5850 5848 5846 5843 5841 5838 5835 5833 5830 5827 5824 5822 5820 5818 5816 5815 5815 5815 5815 5815 5815 5816 5817 5817 5818 5820 5821
5863 5863 5863 5863 5864 5864 5864 5864 5865 5865 5864 5864 5863 5862 5861 5860 5859 5858 5856 5855 5853 5850 5848 5845 5842 5839 5836 5833 5830 5826 5823 5820 5817 5815 5812 5809 5807 5805 5804 5803 5803 5803 5804 5805 5805 5807 5808 5809 5811
5864 5863 5864 5864 5865 5865 5866 5865 5865 5865 5865 5864 5864 5863 5862 5861 5859 5858 5855 5853 5851 5848 5845 5842 5838 5834 5830 5826 5823 5819 5815 5812 5808 5805 5802 5799 5797 5795 5794 5792 5791 5791 5791 5792 5793 5795 5796 5798 5800
5865 5866 5865 5866 5867 5867 5867 5867 5866 5866 5866 5865 5865 5863 5862 5860 5858 5856 5854 5851 5847 5843 5839 5835 5831 5827 5822 5818 5813 5808 5804 5800 5796 5793 5790 5787 5785 5783 5781 5780 5779 5778 5778 5778 5780 5782 5783 5785 5788
5868 5869 5868 5868 5869 5869 5868 5868 5868 5867 5866 5865 5864 5862 5860 5858 5856 5853 5849 5845 5841 5837 5832 5827 5822 5817 5811 5806 5800 5795 5790 5785 5781 5777 5774 5771 5769 5767 5766 5765 5764 5764 5764 5764 5766 5767 5769 5771 5774
5871 5870 5870 5870 5870 5870 5869 5869 5869 5867 5866 5865 5863 5860 5858 5855 5851 5848 5843 5839 5834 5829 5823 5817 5811 5805 5799 5792 5786 5779 5773 5768 5763 5758 5755 5753 5750 5748 5747 5746 5746 5747 5747 5749 5750 5752 5753 5756 5759
5872 5872 5872 5872 5871 5871 5870 5869 5868 5867 5865 5863 5861 5858 5854 5851 5847 5843 5838 5832 5827 5821 5814 5807 5800 5793 5785 5777 5770 5762 5755 5749 5742 5737 5733 5730 5728 5726 5725 5725 5725 5726 5728 5731 5733 5735 5736 5739 5743
5874 5873 5873 5872 5871 5871 5870 5868 5867 5866 5864 5861 5857 5854 5850 5846 5842 5836 5830 5824 5818 5811 5803 5795 5787 5778 5770 5760 5751 5743 5735 5728 5721 5714 5709 5705 5703 5701 5700 5700 5701 5702 5705 5709 5712 5715 5718 5722 5726
5876 5875 5874 5873 5872 5871 5870 5868 5866 5864 5861 5857 5854 5850 5845 5841 5835 5829 5822 5815 5807 5799 5790 5781 5771 5761 5752 5742 5732 5722 5713 5704 5696 5690 5684 5680 5676 5673 5672 5672 5674 5676 5680 5684 5688 5692 5697 5702 5707
5877 5875 5874 5873 5872 5871 5869 5867 5864 5861 5857 5854 5850 5845 5840 5834 5828 5821 5813 5804 5795 5785 5775 5764 5753 5742 5730 5720 5709 5698 5688 5678 5669 5662 5656 5651 5648 5645 5644 5643 5644 5648 5653 5657 5662 5667 5673 5679 5686
5876 5876 5875 5873 5871 5870 5869 5865 5861 5857 5854 5850 5845 5840 5834 5827 5820 5811 5802 5792 5782 5770 5759 5747 5735 5723 5710 5697 5684 5672 5661 5651 5643 5635 5629 5624 5621 5619 5618 5617 5617 5619 5623 5629 5634 5640 5648 5655 5663
5876 5875 5874 5872 5870 5868 5867 5864 5859 5854 5850 5845 5839 5833 5826 5819 5811 5801 5791 5779 5767 5755 5743 5730 5716 5703 5689 5675 5661 5649 5638 5628 5620 5613 5607 5603 5599 5597 5595 5594 5593 5594 5597 5600 5606 5613 5621 5630 5638
5875 5873 5872 5870 5867 5865 5862 5859 5855 5849 5844 5838 5832 5825 5818 5809 5800 5790 5778 5766 5753 5740 5726 5712 5698 5683 5668 5654 5641 5629 5618 5609 5601 5595 5589 5585 5581 5578 5576 5575 5574 5573 5574 5576 5580 5586 5594 5603 5612
5873 5871 5869 5868 5865 5862 5858 5855 5850 5844 5838 5832 5825 5818 5809 5800 5789 5778 5765 5752 5738 5724 5709 5694 5678 5662 5648 5634 5623 5612 5602 5592 5584 5577 5571 5566 5562 5559 5557 5556 5555 5555 5554 5555 5557 5561 5568 5576 5585
5871 5869 5867 5864 5861 5858 5854 5851 5845 5839 5833 5826 5818 5810 5800 5789 5777 5765 5751 5738 5723 5708 5692 5676 5660 5644 5630 5618 5606 5596 5586 5576 5567 5559 5551 5546 5541 5538 5536 5535 5535 5535 5535 5536 5537 5540 5544 5550 5558
5869 5866 5864 5863 5859 5854 5850 5847 5841 5834 5827 5820 5811 5801 5790 5779 5766 5752 5738 5724 5709 5693 5675 5658 5641 5627 5613 5600 5587 5576 5566 5556 5548 5539 5532 5525 5520 5516 5513 5513 5513 5514 5516 5517 5519 5521 5525 5529 5534
5866 5863 5860 5858 5855 5851 5845 5842 5837 5828 5820 5812 5802 5792 5780 5767 5754 5740 5725 5710 5694 5677 5659 5641 5626 5611 5597 5584 5572 5561 5552 5542 5534 5526 5518 5510 5503 5498 5493 5491 5491 5492 5494 5497 5500 5503 5507 5511 5515
5863 5861 5858 5854 5850 5847 5842 5835 5830 5821 5812 5803 5794 5782 5770 5756 5742 5728 5713 5696 5679 5661 5643 5627 5612 5597 5584 5571 5559 5548 5538 5528 5519 5511 5503 5495 5488 5482 5477 5473 5471 5471 5473 5476 5480 5484 5488 5493 5497
5861 5857 5854 5850 5846 5842 5836 5828 5822 5813 5804 5796 5785 5772 5759 5746 5731 5716 5699 5682 5664 5647 5630 5614 5600 5585 5572 5559 5548 5536 5526 5516 5506 5497 5489 5481 5474 5467 5461 5457 5454 5452 5453 5456 5460 5465 5470 5475 5479
5858 5855 5852 5847 5840 5833 5827 5822 5817 5809 5799 5787 5775 5763 5750 5736 5720 5703 5686 5669 5652 5635 5619 5604 5590 5576 5563 5550 5538 5526 5515 5505 5494 5485 5476 5468 5461 5453 5447 5442 5438 5436 5435 5437 5441 5446 5452 5457 5462
5855 5851 5846 5839 5834 5830 5825 5819 5813 5801 5790 5779 5768 5756 5742 5726 5709 5693 5676 5659 5642 5625 5609 5594 5580 5567 5554 5541 5529 5517 5505 5493 5482 5472 5464 5456 5448 5441 5434 5428 5424 5421 5420 5420 5423 5428 5434 5440 5445
5852 5849 5844 5838 5833 5829 5821 5812 5806 5796 5785 5774 5762 5748 5732 5716 5699 5683 5666 5648 5631 5615 5600 5586 5572 5558 5545 5533 5520 5508 5495 5483 5472 5462 5453 5445 5437 5429 5422 5415 5410 5407 5405 5405 5407 5412 5417 5423 5428
5850 5846 5842 5836 5829 5821 5815 5809 5800 5790 5780 5769 5755 5739 5723 5707 5690 5673 5656 5639 5622 5606 5591 5578 5564 5550 5537 5524 5512 5499 5486 5474 5464 5454 5444 5436 5427 5419 5411 5404 5398 5394 5391 5391 5393 5396 5401 5407 5413
5848 5843 5838 5832 5824 5816 5810 5803 5795 5784 5773 5760 5746 5731 5715 5698 5681 5664 5647 5630 5613 5598 5584 5570 5556 5542 5529 5516 5503 5490 5478 5467 5456 5446 5436 5427 5418 5409 5401 5394 5387 5382 5378 5377 5379 5382 5386 5393 5399
5845 5840 5835 5828 5821 5812 5802 5800 5790 5777 5765 5752 5738 5722 5706 5690 5673 5656 5639 5622 5606 5592 5578 5564 5550 5536 5522 5509 5496 5483 5471 5459 5448 5437 5427 5417 5407 5398 5390 5383 5376 5371 5366 5365 5366 5369 5373 5379 5386
5842 5836 5830 5825 5818 5810 5800 5794 5782 5770 5757 5744 5730 5714 5697 5681 5664 5648 5631 5615 5601 5587 5573 5558 5544 5529 5516 5502 5489 5477 5464 5452 5440 5428 5416 5406 5396 5386 5378 5371 5364 5359 5355 5352 5353 5356 5361 5367 5374